Starlink 5605

operational
NORAD ID: 55411 Int'l Des: 2023-014 Owner: SPXS Country: US Constellation: starlink
LEOCIRCULAR

Starlink 5605について

説明を読み込み中...

リアルタイム位置

3D地球を読み込み中...

次回通過

高度履歴

Altitude vs Time

uPlot chart will show altitude changes over time

軌道要素

1 55411U 23014W 25303.32700358 .00004357 00000-0 37280-3 0 9999
2 55411 70.0005 33.3370 0003216 269.6876 90.3914 14.98325129152520
Epoch: Oct 30, 2025 • Age: 5 hours

現在のステータス

高度 577.1 km
速度 7.57 km/s
衛星直下点 -15.40°S, 159.3°E
打ち上げ日 Jan 31, 2023
運用期間 2.7 years
タイプ internet

技術仕様

分類 Payload
質量 305.00 kg
乾燥質量 290.00 kg
総質量 305.00 kg
長さ 0.20 m
直径 2.80 m
スパン 9.00 m
形状 Box + pan
製造者 SPXS
バスタイプ Starlink
フェーズステータス In Orbit
所有者/国 SPXS/US

大規模コンステレーション

Loading constellations...